[Iaude] MPEC B60: 2024 BL1 [a=1.26,e=0.14,i=27.8,H=23.4]
    mpec at marsden.cfa.harvard.edu 
    mpec at marsden.cfa.harvard.edu
       
    Sat Jan 20 06:08:21 EST 2024
    
    
  
M.P.E.C. 2024-B60                              Issued 2024 January 20, 11:06 UT
     The Minor Planet Electronic Circulars contain information on unusual
         minor planets, routine data on comets and natural satellites,
         and occasional editorial announcements.  They are published
    on behalf of Division F of the International Astronomical Union by the
          Minor Planet Center, Smithsonian Astrophysical Observatory,
                          Cambridge, MA 02138, U.S.A.
			  
             Prepared using the Tamkin Foundation Computer Network
                              MPC at CFA.HARVARD.EDU
            URL https://www.minorplanetcenter.net/    ISSN 1523-6714
                                    2024 BL1                                    
Observations:
     K24B01L* C2024 01 16.24395305 11 31.967+11 14 27.06         21.43GVEB060V00
     K24B01L  C2024 01 16.24947505 11 31.430+11 15 25.88         21.67GVEB060V00
     K24B01L  C2024 01 16.25497505 11 30.887+11 16 24.10         21.17GVEB060V00
     K24B01L  C2024 01 16.26047105 11 30.340+11 17 22.67         21.10GVEB060V00
     K24B01L KC2024 01 16.28429 05 11 28.05 +11 21 34.8          21.0 RVEB060291
     K24B01L KC2024 01 16.28742 05 11 27.72 +11 22 08.2          21.1 RVEB060291
     K24B01L KC2024 01 16.29054 05 11 27.41 +11 22 41.4          20.8 RVEB060291
     K24B01L KC2024 01 16.31888005 11 24.710+11 27 40.60         21.20GVEB060V06
     K24B01L KC2024 01 16.32242705 11 24.360+11 28 17.80               VEB060V06
     K24B01L KC2024 01 16.32597505 11 24.030+11 28 55.30               VEB060V06
     K24B01L KC2024 01 16.32951705 11 23.720+11 29 33.30         20.69GVEB060V06
     K24B01L 1C2024 01 16.79432 05 10 50.57 +12 51 00.1          20.1 VXEB060033
     K24B01L 1C2024 01 16.79577 05 10 50.45 +12 51 15.7          20.0 VXEB060033
     K24B01L 1C2024 01 16.79722 05 10 50.33 +12 51 30.1          20.3 VXEB060033
     K24B01L 1C2024 01 16.79890 05 10 50.16 +12 51 48.0          20.2 VXEB060033
     K24B01L  C2024 01 17.09222605 10 28.822+13 43 01.02         21.0 GVEB060H01
     K24B01L  C2024 01 17.09666105 10 28.413+13 43 47.11         20.7 GVEB060H01
     K24B01L KC2024 01 17.10956605 10 27.410+13 46 02.30               VEB060V06
     K24B01L KC2024 01 17.11010105 10 26.21 +13 46 03.6          21.3 GVEB060H21
     K24B01L KC2024 01 17.11203005 10 27.190+13 46 28.50               VEB060V06
     K24B01L KC2024 01 17.11569105 10 25.71 +13 47 01.5          21.2 GVEB060H21
     K24B01L KC2024 01 17.11843305 10 26.620+13 47 35.20         20.69GVEB060V06
     K24B01L  C2024 01 17.11865305 10 26.402+13 47 36.45         21.2 GVEB060H01
     K24B01L KC2024 01 17.12137605 10 25.18 +13 48 00.9          21.9 GVEB060H21
     K24B01L KC2024 01 17.12380305 10 26.130+13 48 30.90         20.83GVEB060V06
     K24B01L  C2024 01 17.12439805 10 25.880+13 48 35.85         20.7 GVEB060H01
     K24B01L  C2024 01 17.13087705 10 25.766+13 49 42.20         21.2 GVEB060654
     K24B01L  C2024 01 17.13757305 10 25.162+13 50 51.91         21.2 GVEB060654
     K24B01L  C2024 01 17.15874505 10 23.237+13 54 32.01         21.1 GVEB060654
     K24B01L  C2024 01 17.17045205 10 22.146+13 56 33.79         21.1 GVEB060654
     K24B01L KC2024 01 20.37774 05 06 49.15 +22 40 33.2          20.7 GVEB060291
     K24B01L KC2024 01 20.39197 05 06 48.28 +22 42 43.3          21.4 GVEB060291
Observer details:
033 Karl Schwarzschild Observatory, Tautenburg.  Observers S. Melnikov, C.
    Hogner, F. Ludwig, M. Hartmann, B. Stecklum.  Measurer B. Stecklum.
    1.34-m f/3 Schmidt + CCD.
291 LPL/Spacewatch II.  Observers T. H. Bressi, R. A. Mastaler.  1.8-m f/2.7
    reflector + CCD.
654 Table Mountain Observatory, Wrightwood-PHMC.  Observers N. Evans, P. Choi,
    N. Saini, C. Zhai, R. Trahan, M. Shao.  1.0-m Reflector + CCD.
H01 Magdalena Ridge Observatory, Socorro.  Observers W. H. Ryan, E. V. Ryan.
    Measurer W. H. Ryan.  2.4-m f/8.9 Ritchey-Chretien + CCD.
H21 Astronomical Research Observatory, Westfield.  Observer R. Holmes.
    Measurers T. Linder, R. Holmes, L. Horn.  0.76-m f/3.0 astrograph + CCD.
V00 Kitt Peak-Bok.  Observer R. A. Mastaler.  Measurers M. J. Brucker, C. E.
    Woodward, D. Fay, J. B. Fazekas, D. C. Fuls, A. R. Gibbs, H. Groeller, J.
    K. Hogan, R. A. Kowalski, S. M. Larson, C. Lejoly, G. J. Leonard, R. A.
    Mastaler, R. S. McMillan, D. Rankin, R. L. Seaman, A. Serrano, F. C.
    Shelly, K. W. Wierzchos.  2.25-m reflector + 4x4K mosaic CCD.
V06 Catalina Sky Survey-Kuiper.  Observer G. J. Leonard.  Measurers T. Beuden,
    V. F. Carvajal, D. Fay, J. B. Fazekas, D. C. Fuls, A. R. Gibbs, A. D.
    Grauer, H. Groeller, J. K. Hogan, R. A. Kowalski, S. M. Larson, G. J.
    Leonard, D. Rankin, R. L. Seaman, F. C. Shelly, K. W. Wierzchos.  1.55-m
    reflector + 1K CCD.
Orbital elements:
2024 BL1                                                 Earth MOID = 0.1359 AU
Epoch 2023 Sept. 13.0 TT = JDT 2460200.5                MPC                     
M 304.01889              (2000.0)            P               Q                  
n   0.69274515     Peri.  315.61770     +0.28291356     -0.85849761             
a   1.2649899      Node   113.47036     +0.95729452     +0.22504725             
e   0.1438137      Incl.   27.79408     +0.05955769     +0.46079887             
P   1.42           H   23.47          G   0.15           U   9                  
Residuals in seconds of arc
240116 V00  0.0   0.2-    240116 033  0.4-  0.1-    240117 H01  0.1-  0.3+
240116 V00  0.1+  0.1+    240116 033  0.2-  0.2+    240117 H21  0.1+  0.1+
240116 V00  0.0   0.1-    240116 033  0.1-  0.6-    240117 V06  0.0   0.1+
240116 V00  0.1-  0.2+    240116 033  0.4-  0.3-    240117 H01  0.1-  0.1-
240116 291  0.3+  0.1-    240117 H01  0.0   0.2+    240117 654  0.0   0.0
240116 291  0.1-  0.1+    240117 H01  0.1-  0.0     240117 654  0.0   0.0
240116 291  0.2-  0.3+    240117 V06  0.3-  0.2-    240117 654  0.2+  0.1-
240116 V06  0.1+  0.2+    240117 H21  0.1-  0.0     240117 654  0.1+  0.1+
240116 V06  0.2-  0.1-    240117 V06  0.2-  0.3+    240120 291  0.4-  0.4-
240116 V06  0.1-  0.1-    240117 H21  0.1+  0.3-    240120 291  0.2-  0.3+
240116 V06  0.1+  0.5+    240117 V06  0.0   0.3+
Ephemeris:
2024 BL1                 a,e,i = 1.26, 0.14, 28                  q = 1.0831
Date    TT    R. A. (2000) Decl.     Delta      r    Elong.  Phase     V
2023 12 21    06 04 42.9 -47 41 54   0.2472  1.0890   108.8    58.8    22.7
...
2024 01 05    05 31 21.7 -21 56 32   0.1718  1.1025   130.4    42.8    21.5
...
2024 01 13    05 16 19.2 +01 23 31   0.1606  1.1125   140.7    34.1    21.1
...
2024 01 19    05 08 14.5 +19 03 26   0.1730  1.1211   139.5    34.7    21.3
2024 01 20    05 07 13.5 +21 42 24   0.1766  1.1226   138.7    35.4    21.4
2024 01 21    05 06 18.5 +24 14 42   0.1807  1.1242   137.7    36.1    21.5
...
2024 01 27    05 02 59.2 +37 02 11   0.2121  1.1340   130.6    41.3    22.0
...
2024 02 04    05 04 38.0 +48 27 06   0.2666  1.1483   121.7    46.9    22.7
...
2024 02 19    05 27 04.9 +59 38 57   0.3849  1.1779   110.2    52.0    23.7
A. U. Tomatic                (C) Copyright 2024 MPC           M.P.E.C. 2024-B60
    
    
More information about the Iaude
mailing list